Flag for Austria Weather past 2 weeks in Graz, Styria, Austria

66 °F

Partly sunny.

Feels Like: 66 °F
Forecast: 51 / 66 °F
Wind: 2 mph from North

Location: Graz-Thalerhof-Flughafen

Current Time: Oct 4, 2015 at 1:36:10 PM

Latest Report: Oct 4, 2015 at 12:50 PM

Visibility: N/A

Pressure: 30.04 "Hg

Humidity: 64%

Dew point: 54 °F

Location of GrazLocation

Historic Weather in Graz — Graph


Graz temperature yesterday

Maximum temperature yesterday: 66 °F (at 4:50 PM)
Minimum temperature yesterday: 41 °F (at 2:20 AM)
Average temperature yesterday: 52 °F

Past Weeks' High & Low Weather Summary

High68 °F (Sep 19, 4:20 PM)100% (Sep 22, 2:50 AM)30.48 "Hg (Sep 22, 2:50 AM)
Low36 °F (Sep 29, 4:50 AM)37% (Sep 28, 3:50 PM)29.71 "Hg (Sep 23, 3:50 AM)
Average54 °F75%30.17 "Hg
* Reported Sep 19 12:20 PM — Oct 4 12:20 PM, Graz, Weather by CustomWeather, © 2015

Note: Actual official high and low records may vary slightly from our data, if they occured in-between our weather recording intervals... More about our weather records


Graz weather history for previous 24 hours

Time TempWeatherWind HumidityBarometerVisibility
12:20 PM
Sun, Oct 4
63 °FPartly sunny.2 mph73%30.07 "HgN/A
11:50 AM63 °FPartly sunny.1 mph73%30.07 "HgN/A
11:20 AM61 °FPartly sunny.2 mph77%30.07 "HgN/A
10:50 AM59 °FPartly sunny.1 mph82%30.07 "HgN/A
10:20 AM57 °FPartly sunny.1 mph82%30.07 "HgN/A
9:50 AM55 °FScattered clouds.3 mph82%30.07 "HgN/A
9:20 AM52 °FScattered clouds.2 mph94%30.07 "Hg5 mi
8:50 AM50 °FFog.1 mph94%30.07 "Hg3 mi
8:20 AM45 °FQuite cool.1 mph100%30.07 "Hg2 mi
7:50 AM43 °FQuite cool.2 mph100%30.07 "Hg2 mi
7:20 AM43 °FQuite cool.2 mph100%30.07 "Hg2 mi
6:50 AM43 °FQuite cool.1 mph100%30.07 "Hg2 mi
5:50 AM45 °FQuite cool.1 mph100%30.07 "Hg1 mi
5:20 AM45 °FFog.1 mph100%30.07 "Hg0 mi
4:50 AM45 °FFog.1 mph100%30.04 "Hg0 mi
4:20 AM46 °FFog.1 mph100%30.04 "Hg0 mi
3:50 AM46 °FFog.3 mph100%30.07 "Hg0 mi
3:20 AM46 °FFog.2 mph100%30.07 "Hg0 mi
2:50 AM45 °FSnow. Overcast.3 mph100%30.07 "Hg1 mi
2:20 AM46 °FPassing clouds.1 mph100%30.09 "Hg0 mi
1:50 AM46 °FSnow. Overcast.1 mph100%30.09 "Hg1 mi
1:20 AM46 °FLight fog.2 mph93%30.09 "Hg1 mi
12:50 AM48 °FCool.2 mph100%30.09 "Hg1 mi
12:20 AM46 °FCool.1 mph100%30.09 "Hg4 mi
11:50 PM
Sat, Oct 3
50 °FCool.2 mph94%30.09 "Hg5 mi
11:20 PM52 °FCool.3 mph94%30.09 "Hg4 mi
10:50 PM52 °FCool.2 mph94%30.09 "Hg4 mi
10:20 PM50 °FFog.3 mph94%30.09 "Hg4 mi
9:50 PM52 °FClear.3 mph94%30.09 "Hg5 mi
9:20 PM50 °FClear.5 mph94%30.09 "Hg10 mi
8:50 PM54 °FClear.2 mph100%30.09 "Hg10 mi
8:20 PM55 °FPassing clouds.3 mph88%30.09 "HgN/A
7:50 PM57 °FPassing clouds.3 mph88%30.09 "HgN/A
7:20 PM57 °FPassing clouds.2 mph88%30.09 "HgN/A
6:50 PM59 °FPassing clouds.1 mph82%30.09 "HgN/A
6:20 PM63 °FPassing clouds.2 mph77%30.09 "HgN/A
5:50 PM64 °FPassing clouds.1 mph73%30.09 "HgN/A
5:20 PM66 °FPassing clouds.No wind68%30.09 "HgN/A
4:50 PM66 °FPassing clouds.1 mph64%30.09 "HgN/A
4:20 PM64 °FScattered clouds.3 mph68%30.12 "HgN/A
3:50 PM64 °FScattered clouds.5 mph68%30.12 "HgN/A
3:20 PM64 °FPartly sunny.6 mph68%30.12 "HgN/A
2:50 PM63 °FPartly sunny.6 mph68%30.12 "HgN/A
2:20 PM63 °FPartly sunny.9 mph68%30.12 "HgN/A
1:50 PM63 °FScattered clouds.6 mph68%30.15 "HgN/A
1:20 PM61 °FScattered clouds.7 mph72%30.15 "HgN/A
Weather by CustomWeather, © 2015

See weather overviewHow to use our weather pages